User: anonymous
Location: Bergen
(60.3910°N, 5.3250°E)
Time: 23:18:07
(UTC+02:00)
Language:

Cosmos 1943 - Orbit

View from above orbital plane
View from above orbital plane
View from above satellite
View from above satellite

Ground track
Ground track

The orbit data is extracted from the following two-line orbital elements,

1 19119U 88039A   14245.10855860  .00000148  00000-0  10126-3 0  2267
2 19119 071.0034 081.6514 0010927 178.1696 320.2157 14.14944230357939
Epoch (UTC): 02 September 2014 02:36:19
Eccentricity: 0.0010927
inclination: 71.0034°
perigee height: 834 km
apogee height: 850 km
right ascension of ascending node: 81.6514°
argument of perigee: 178.1696°
revolutions per day: 14.14944230
mean anomaly at epoch: 320.2157°
orbit number at epoch: 35793

The dashed part of the orbit path shows where the satellite is in the earth's shadow,  

DLR